sat.trackr.live / text

‹ back to catalog

ARIRANG-2 (KOMPSAT-2)

NORAD 29268 · 2006-031A

PAYLOAD ACTIVE UNKNOWN

§ Identity

Operator
Country
SKOR
Launch date
2006-07-28
Launch site
PLMSC
Launch vehicle
Mass (kg)
RCS (m²)
2.07

Purposes: earth_obs

External: N2YO · Heavens-Above · Gunter

§ Orbital elements

Epoch: 2026-09-19T23:54:49.239072Z

Period
98.31 min
Inclination
97.8344°
Eccentricity
0.0015370
Mean motion
14.64707381 rev/d
Perigee alt
667.2 km
Apogee alt
688.9 km
Semi-major
7,056.2 km
B*
6.8397e-5
RAAN
82.8854°
Arg perigee
128.7581°
Mean anomaly
30.9891°
Rev number
7,535

§ Raw data

ARIRANG-2 (KOMPSAT-2)1 29268U 06031A   26262.99640323  .00000320  00000+0  68397-4 0  99922 29268  97.8344  82.8854 0015370 128.7581  30.9891 14.64707381 75358

JSON: /api/v1/satellites/29268 · /tle

For live sub-satellite position, see the globe view (requires WebGL).

§ Visibility from observer

Set your observer location to see the next 7 days of passes ≥ 10°. The values pass through the URL so the page stays shareable.

No JS? Fill the form by hand. The geolocation button needs JavaScript.